Lander, WY

10:51 PM MDT on September 19, 2017 (GMT -0600)
Hunt

Weather History for KLND - January, 2014

Change the Weather History Date:

Friday, January 10, 2014

  Actual Average Record
Temperature  
Mean Temperature 26 °F 22 °F  
Max Temperature 40 °F 33 °F 56 °F (1953)
Min Temperature 12 °F 10 °F -24 °F (1962)
Degree Days  
Heating Degree Days 39 43  
Month to date heating degree days 484 439  
Since 1 July heating degree days 3757 3685  
Cooling Degree Days 0 0  
Month to date cooling degree days 0 0  
Year to date cooling degree days 0 0  
Moisture  
Dew Point 11 °F    
Average Humidity 51    
Maximum Humidity 67    
Minimum Humidity 35    
Precipitation  
Precipitation 0.00 in 0.01 in 0.29 in (1898)
Month to date precipitation 0.47 0.14  
Year to date precipitation 0.47 0.14  
Snow  
Snow 0.00 in 0.20 in - ()
Month to date snowfall 7.2 2.6  
Since 1 July snowfall 49.8 38.3  
Snow Depth 3.00 in    
Sea Level Pressure  
Sea Level Pressure 29.82 in    
Wind  
Wind Speed 6 mph (South)    
Max Wind Speed 15 mph    
Max Gust Speed 17 mph    
Visibility 10 miles    
Events      
T = Trace of Precipitation, MM = Missing Value Source: NWS Daily Summary

Daily Weather History Graph

Daily Weather History Graph

Search for Another Location

Airport or City:

Trip Planner

Search our weather history database for the weather conditions in past years. The results will help you decide how hot, cold, wet, or windy it might be!

Date:

Astronomy

Jan. 10, 2014 Rise Set
Actual Time 7:44 AM MST 5:00 PM MST
Civil Twilight 7:13 AM MST 5:32 PM MST
Nautical Twilight 6:37 AM MST 6:07 PM MST
Astronomical Twilight 6:03 AM MST 6:41 PM MST
Moon 1:08 PM MST (1/10) 2:53 AM MST (1/10)
Length of Visible Light 10h 19m
Length of Day
9h 15m
Waxing Gibbous, 75% of the Moon is Illuminated
Jan 10
Waxing Gibbous
Jan 15
Full
Jan 23
Last Quarter
Jan 30
New
Feb 6
First Quarter

Hourly Weather History & Observations

Time (MST) Temp. Windchill Dew Point Humidity Pressure Visibility Wind Dir Wind Speed Gust Speed Precip Events Conditions
12:53 AM 19.0 °F 13.9 °F 5.0 °F 54% 29.81 in 10.0 mi SSE 3.5 mph - N/A   Clear
1:53 AM 24.1 °F 17.0 °F 5.0 °F 44% 29.78 in 10.0 mi ESE 5.8 mph - N/A   Clear
2:53 AM 17.1 °F 11.7 °F 3.9 °F 56% 29.79 in 10.0 mi NNE 3.5 mph - N/A   Clear
3:53 AM 15.1 °F 3.3 °F 3.9 °F 61% 29.78 in 10.0 mi WNW 9.2 mph - N/A   Clear
4:53 AM 21.0 °F 10.6 °F 6.1 °F 53% 29.75 in 10.0 mi WSW 9.2 mph - N/A   Clear
5:53 AM 12.9 °F -0.2 °F 3.0 °F 65% 29.77 in 10.0 mi ESE 10.4 mph - N/A   Clear
6:53 AM 19.0 °F 7.5 °F 5.0 °F 54% 29.75 in 10.0 mi ESE 10.4 mph - N/A   Clear
7:53 AM 19.0 °F 11.1 °F 6.1 °F 57% 29.77 in 10.0 mi SSE 5.8 mph - N/A   Clear
8:53 AM 21.0 °F 11.4 °F 8.1 °F 57% 29.68 in 10.0 mi SE 8.1 mph - N/A   Clear
9:53 AM 24.1 °F - 9.0 °F 53% 29.80 in 10.0 mi Calm Calm - N/A   Clear
10:53 AM 26.1 °F - 10.0 °F 51% 29.83 in 10.0 mi Calm Calm - N/A   Clear
11:53 AM 28.9 °F 23.9 °F 12.9 °F 51% 29.80 in 10.0 mi Variable 4.6 mph - N/A   Clear
12:53 PM 30.9 °F 27.5 °F 16.0 °F 54% 29.79 in 10.0 mi Variable 3.5 mph - N/A   Clear
1:53 PM 37.9 °F 32.1 °F 12.0 °F 35% 29.74 in 10.0 mi NW 8.1 mph - N/A   Mostly Cloudy
2:53 PM 37.0 °F 33.3 °F 16.0 °F 42% 29.78 in 10.0 mi South 4.6 mph - N/A   Scattered Clouds
3:53 PM 37.0 °F 32.4 °F 19.9 °F 50% 29.81 in 10.0 mi SSW 5.8 mph - N/A   Clear
4:53 PM 34.0 °F 29.8 °F 18.0 °F 52% 29.83 in 10.0 mi WSW 4.6 mph - N/A   Clear
5:53 PM 33.1 °F 26.9 °F 16.0 °F 50% 29.88 in 10.0 mi SSW 6.9 mph - N/A   Clear
6:53 PM 28.9 °F 20.4 °F 15.1 °F 56% 29.89 in 10.0 mi North 9.2 mph - N/A   Clear
7:53 PM 28.9 °F 21.1 °F 14.0 °F 54% 29.92 in 10.0 mi SW 8.1 mph - N/A   Clear
8:53 PM 23.0 °F 17.0 °F 12.9 °F 65% 29.94 in 10.0 mi ESE 4.6 mph - N/A   Clear
9:53 PM 27.0 °F 20.5 °F 12.9 °F 56% 29.96 in 10.0 mi WSW 5.8 mph - N/A   Clear
10:53 PM 25.0 °F - 12.0 °F 58% 29.96 in 10.0 mi Calm Calm - N/A   Clear
11:53 PM 23.0 °F 18.4 °F 12.9 °F 65% 29.98 in 10.0 mi ESE 3.5 mph - N/A   Mostly Cloudy